Location: Iwkowa
(49.8210°N, 20.5761°E)
Time: 11:02:12
(UTC+01:00)

ISS - Pass Details

Date: 29 January 2019
Orbit: 403 x 411 km, 51.6° (Epoch: 18 February)

Event Time Altitude Azimuth Distance (km) Brightness Sun altitude
Rises 18:17:02 0° 265° (W) 2,333 1.8 -17.7°
Reaches altitude 10° 18:19:07 10° 268° (W) 1,475 0.3 -18.1°
Maximum altitude 18:22:25 66° 351° (N) 451 -3.7 -18.6°
Enters shadow 18:22:46 60° 32° (NNE) 475 -3.8 -18.6°
